Regional Weather Roundup
Issued by NWS Charleston, WV

Home | Current Version | Previous Version | Graphics & Text | Print | Product List | Glossary Off
Versions: 1 2 3 4 5 6 7 8 9 10 11 12 13 14 15 16 17 18 19 20 21 22 23 24 25 26 27

000
ASUS41 KRLX 231810
RWRRLX
West Virginia Regional Weather Roundup
National Weather Service Charleston WV
200 PM EDT SUN APR 23 2017

Note: "fair" indicates few or no clouds below 12,000 feet with no
significant weather and/or obstructions to visibility.

WVZ003-231900-
Northern Panhandle of West Virginia

CITY           SKY/WX    TMP DP  RH WIND       PRES   REMARKS
WHEELING       SUNNY     62  34  35 NE13G22   30.04F
$$

WVZ009-231900-
Northwest West Virginia

CITY           SKY/WX    TMP DP  RH WIND       PRES   REMARKS
PARKERSBURG    PTSUNNY   64  40  41 NE14      30.04F
$$

WVZ006-231900-
Western West Virginia

CITY           SKY/WX    TMP DP  RH WIND       PRES   REMARKS
HUNTINGTON     CLOUDY    55  44  66 NE6       29.99R
$$

WVZ015-231900-
West Central West Virginia

CITY           SKY/WX    TMP DP  RH WIND       PRES   REMARKS
CHARLESTON     LGT RAIN  57  46  66 NE3       30.00S
$$

WVZ022-031-231900-
North Central West Virginia

CITY           SKY/WX    TMP DP  RH WIND       PRES   REMARKS
CLARKSBURG     PTSUNNY   63  35  35 E12G17    30.02F
MORGANTOWN     SUNNY     64  34  32 NE8       30.04F
$$

WVZ025-035-042-045-231900-
Southern West Virginia

CITY           SKY/WX    TMP DP  RH WIND       PRES   REMARKS
BECKLEY        CLOUDY    49  44  83 E10G22    30.00F
LOGAN          CLOUDY    55  46  71 CALM      29.97F
BLUEFIELD      LGT RAIN  43  40  89 E9        30.00F
LEWISBURG      CLOUDY    50  42  75 SE6       30.04F
$$

WVZ047-231900-
Northern Mountains of West Virginia

CITY           SKY/WX    TMP DP  RH WIND       PRES   REMARKS
ELKINS         CLOUDY    58  31  35 VRB3      30.05F
$$

WVZ052-231900-
Eastern Panhandle of West Virginia

CITY           SKY/WX    TMP DP  RH WIND       PRES   REMARKS
MARTINSBURG    MOSUNNY   60  39  45 E5        30.09F
PETERSBURG     CLOUDY    60  41  50 NE5       30.09F
$$




USA.gov is the U.S. government's official web portal to all federal, state and local government web resources and services.